CZ-6A DEB, 56654

Orbit data source: Space-Track

CZ-6A DEB, 56654 is space debris in SSO originally from a launch on Fri, 11 Nov 2022 UTC launched from the Taiyaun Space Center, China (TSC). Debris objects in space refer to the collection of defunct objects orbiting the Earth. Examples of debris include non-operational satellites, rocket bodies, and fragments generated from explosions, collisions, or faulty payload assembly.

Loading next visibility...
Identifier
56654, 2022-151AGE
Orbit
SSO
Country
Flag of CNCN / PRC
Related business
Manufacturer
SAST
Mission
Spacecraft
Bus & Motor
Unknown
Mass
Unknown
Launch date (UTC)
2022-11-11 (3 years ago)
Launch vehicle
Unknown
Launch site
Taiyaun Space Center, China (TSC)
Object type
Payload
Rocket body
Debris
Shape & HBR
Unknown shape, 0.1 m
Radar Cross Section
Small (<0.1 m²)

Expand to show TLE details & history
Last TLE update: 6 days ago

TLE from 6 days ago
0 CZ-6A DEB
1 56654U 22151AGE 26124.68233090  .00000228  00000-0  18678-3 0  9998
2 56654  98.8974  94.4261 0135790 215.4336 143.7748 13.94834199154418
Epoch: 2026-05-04T16:22Z
TLE epoch observation values (Epoch: 2026-05-04T16:22:33.389Z)
Latitude
-0.00001°
Longitude
-13.78104°
Altitude
994.944 km
Speed
7.314 km/s
True Right ascension
06h 17m 42s
True Declination
0° 00' 00"
Sunlit
Object was in daylight at epoch
Visualization orbit readout
Latitude
Unknown
Longitude
Unknown
Altitude
Unknown
Speed
Unknown
Apparent Right ascension
Unknown
Apparent Declination
Unknown
Sunlit
N/A
Visualization observer readout
Local Sidereal Time
22:11:21
Azimuth
Unknown
Elevation
Unknown
Doppler factor
Unknown
Orbital elements
Apogee altitude
1,007.89 km
Perigee altitude
809.988 km
Semi-major axis
7,287.076 km
Eccentricity
0.01358
Inclination
98.8974°
RAAN
94.4261°
Arg. of periapsis
215.4336°
True anomaly
144.68189°
Mean anomaly
143.7748°
Eccentric anomaly
144.22958°
Mean motion
3.4891 °/min
Orbital period
103.18 mins
BSTAR
0.00018678
Loading maneuver chart data...
Computing Atmospheric mass density...
Loading historical data...
Loading historical data...
Loading historical data...
Loading historical data...
Loading historical data...
Loading historical data...
Loading historical data...

Documentation

Showing up to 5 results
|